Skip Page Navigation
NASA JPL Caltech
NASA Logo - Jet Propulsion Laboratory + View the NASA Portal
+ Near-Earth Object (NEO) Program
Search JPL
JPL Home Earth Solar System Stars & Galaxies Technology
JPL Solar System Dynamics
BODIES ORBITS EPHEMERIDES TOOLS PHYSICAL DATA DISCOVERY FAQ SITE MAP
JPL Small-Body Database Browser
Search: [ help ]  
(2012 HG2)
Classification: Apollo [NEO]          SPK-ID: 3602706
Ephemeris | Orbit Diagram | Orbital Elements | Physical Parameters | Close-Approach Data ]

[ hide orbit diagram ]
Orbit Diagram
Note: Make sure you have Java enabled on your browser to see the applet. This applet is provided as a 3D orbit visualization tool. The applet was implemented using 2-body methods, and hence should not be used for determining accurate long-term trajectories (over several years or decades) or planetary encounter circumstances. For accurate long-term ephemerides, please instead use our Horizons system.
Orbit Viewer

Additional Notes: the orbits shown in the applet are color coded. The planets are white lines, and the asteroid/comet is a blue line. The bright white line indicates the portion of the orbit that is above the ecliptic plane, and the darker portion is below the ecliptic plane. Likewise for the asteroid/comet orbit, the light blue indicates the portion above the ecliptic plane, and the dark blue the portion below the ecliptic plane.

Orbit Viewer applet originally written and kindly provided by Osamu Ajiki (AstroArts), and further modified by Ron Baalke (JPL).


Orbital Elements at Epoch 2456400.5 (2013-Apr-18.0) TDB
Reference: JPL 27 (heliocentric ecliptic J2000)
 Element Value Uncertainty (1-sigma)   Units 
e .1816816319164669 1.9539e-05  
a 1.189111670580196 2.5563e-05 AU
q .9730719217382696 2.3185e-06 AU
i .1109474391609625 1.0797e-05 deg
node 143.308302377332 0.0020367 deg
peri 26.43011152806697 0.0020812 deg
M 304.1705555106821 0.01035 deg
tp 2456473.950235905160
(2013-Jun-30.45023591)
0.015986 JED
period 473.6225690176232
1.30
0.015273
4.182e-05
d
yr
n .760098913247955 2.4511e-05 deg/d
Q 1.405151419422122 3.0207e-05 AU
  Orbit Determination Parameters
   # obs. used (total)      205  
   data-arc span      39 days  
   first obs. used      2012-04-20  
   last obs. used      2012-05-29  
   planetary ephem.      DE405  
   SB-pert. ephem.      SB405-CPV-2  
   condition code      5  
   fit RMS      .45812  
   data source      ORB  
   producer      Otto Matic  
   solution date      2012-May-30 00:50:50  

Additional Information
 Earth MOID = 6.31466E-5 AU 
 T_jup = 5.316 
[ show covariance matrix ]

Ephemeris | Orbit Diagram | Orbital Elements | Physical Parameters | Close-Approach Data ]

Physical Parameter Table
Parameter Symbol Value Units Sigma Reference Notes
absolute magnitude H 26.963 mag .34625 27 autocmod 2.5b
rotation period rot_per 0.0227 h n/a Asteroid Lightcurve DataBase (Rev. 2013-May-01) Incomplete or inconclusive result.
Published Reference List:
[Hergenrother, C.W.; Kwiatkowski, T.; Kyrszczynska, A.; Pretka-Ziomek, H.; et al. (2012) ACM 2012, #6484.]

[ show close-approach data ]
Ephemeris | Orbit Diagram | Orbital Elements | Physical Parameters | Close-Approach Data ]
ABOUT SSD CREDITS/AWARDS PRIVACY/COPYRIGHT GLOSSARY LINKS
FirstGov 2013-Jun-18 22:39 UT
(server date/time)  
NASA Home Page
Site Manager:   Donald K. Yeomans
Webmaster  Alan B. Chamberlin